This demonstration page uses our WeatherBlox Daily Observations layout. Learn more.

Left ArrowRight Arrow

38.88101, -77.10428

Hourly Observations for January 28, 2021

Temp ( °F °C ) Dew Point ( °F °C ) Humidity (%) Winds ( mph kmh ) Pressure ( in mb ) Visibility ( mi km ) Precip ( " mm )
12:52 am 00:52 Cloudy 35 1.7 22 -5.6 59 59 N 15 24 30.10 1019 10 16 0.00 0.00
1:52 am 01:52 Cloudy 35 1.7 22 -5.6 59 59 N 20 31 30.09 1019 10 16 0.00 0.00
2:52 am 02:52 Cloudy 35 1.7 22 -5.6 59 59 N 15 24 30.11 1020 10 16 0.00 0.00
3:52 am 03:52 Cloudy 34 1.1 19 -7.2 54 54 N 17 28 30.11 1020 10 16 0.00 0.00
4:52 am 04:52 Cloudy 33 0.6 19 -7.2 56 56 NNW 18 30 30.12 1020 10 16 0.00 0.00
5:52 am 05:52 Cloudy 32 0 17 -8.3 54 54 NNW 25 41 30.15 1021 10 16 0.00 0.00
6:52 am 06:52 Cloudy 31 -0.6 14 -10 49 49 NNW 23 37 30.18 1022 10 16 0.00 0.00
7:52 am 07:52 Cloudy 30 -1.1 14 -10 51 51 NNW 24 39 30.20 1023 10 16 0.00 0.00
8:52 am 08:52 Mostly Cloudy 30 -1.1 15 -9.4 54 54 N 23 37 30.22 1023 10 16 0.00 0.00
9:52 am 09:52 Mostly Cloudy 31 -0.6 13 -10.6 47 47 NNW 25 41 30.22 1024 10 16 0.00 0.00
10:52 am 10:52 Partly Cloudy 34 1.1 14 -10 44 44 NNW 17 28 30.23 1024 10 16 0.00 0.00
11:52 am 11:52 Mostly Sunny 35 1.7 10 -12.2 35 35 NNW 21 33 30.22 1023 10 16 0.00 0.00
12:52 pm 12:52 Mostly Sunny 35 1.7 12 -11.1 38 38 NW 22 35 30.20 1023 10 16 0.00 0.00
1:52 pm 13:52 Mostly Sunny 36 2.2 11 -11.7 35 35 NNW 28 44 30.20 1023 10 16 0.00 0.00
2:52 pm 14:52 Sunny 36 2.2 11 -11.7 35 35 NW 20 31 30.21 1023 10 16 0.00 0.00
3:52 pm 15:52 Mostly Sunny 36 2.2 9 -12.8 32 32 NW 20 31 30.23 1024 10 16 0.00 0.00
4:52 pm 16:52 Mostly Sunny 34 1.1 9 -12.8 35 35 NW 26 43 30.25 1024 10 16 0.00 0.00
5:52 pm 17:52 Mostly Clear 32 0 10 -12.2 40 40 NNW 18 30 30.28 1025 10 16 0.00 0.00
6:52 pm 18:52 Mostly Clear 31 -0.6 9 -12.8 40 40 NNW 28 44 30.29 1026 10 16 0.00 0.00
7:52 pm 19:52 Mostly Clear 30 -1.1 9 -12.8 41 41 NNW 20 31 30.31 1027 10 16 0.00 0.00
8:52 pm 20:52 Mostly Clear 29 -1.7 9 -12.8 43 43 NNW 21 33 30.32 1027 10 16 0.00 0.00
9:52 pm 21:52 Mostly Cloudy 28 -2.2 9 -12.8 44 44 NNW 17 28 30.32 1027 10 16 0.00 0.00
10:52 pm 22:52 Mostly Cloudy 29 -1.7 9 -12.8 43 43 NW 13 20 30.31 1026 10 16 0.00 0.00
11:52 pm 23:52 Partly Cloudy 27 -2.8 9 -12.8 46 46 NNW 16 26 30.31 1027 10 16 0.00 0.00

Powered by AerisWeather